date,time,SUV Intensity [MED/Hr],UV Index,Daily total [MED],Since Last [MED]
20/02/2022,00:04:53,-0.001,0.0,0.0,0.0
20/02/2022,00:05:53,0.000,0.0,0.0,0.0
20/02/2022,00:06:52,0.001,0.0,0.0,0.0
20/02/2022,00:07:54,0.000,0.0,0.0,0.0
20/02/2022,00:08:53,0.001,0.0,0.0,0.0
20/02/2022,00:09:53,0.000,0.0,0.0,0.0
20/02/2022,00:10:52,0.000,0.0,0.0,0.0
20/02/2022,00:11:53,0.001,0.0,0.0,0.0
20/02/2022,00:13:01,0.000,0.0,0.0,0.0
20/02/2022,00:13:54,-0.001,0.0,0.0,0.0
20/02/2022,00:14:53,0.001,0.0,0.0,0.0
20/02/2022,00:15:52,0.000,0.0,0.0,0.0
20/02/2022,00:17:02,0.000,0.0,0.0,0.0
20/02/2022,00:17:52,0.001,0.0,0.0,0.0
20/02/2022,00:18:53,0.001,0.0,0.0,0.0
20/02/2022,00:19:53,0.000,0.0,0.0,0.0
20/02/2022,00:20:53,-0.001,0.0,0.0,0.0
20/02/2022,00:21:53,-0.000,0.0,0.0,0.0
20/02/2022,00:22:53,0.000,0.0,0.0,0.0
20/02/2022,00:23:53,0.000,0.0,0.0,0.0
20/02/2022,00:24:52,0.000,0.0,0.0,0.0
20/02/2022,00:26:01,0.000,0.0,0.0,0.0
20/02/2022,00:27:01,0.000,0.0,0.0,0.0
20/02/2022,00:27:53,0.000,0.0,0.0,0.0
20/02/2022,00:28:53,0.000,0.0,0.0,0.0
20/02/2022,00:30:00,0.001,0.0,0.0,0.0
20/02/2022,00:30:52,0.001,0.0,0.0,0.0
20/02/2022,00:31:53,0.000,0.0,0.0,0.0
20/02/2022,00:32:54,-0.000,0.0,0.0,0.0
20/02/2022,00:33:53,0.001,0.0,0.0,0.0
20/02/2022,00:34:53,0.000,0.0,0.0,0.0
20/02/2022,00:35:53,0.000,0.0,0.0,0.0
20/02/2022,00:36:53,0.000,0.0,0.0,0.0
20/02/2022,00:37:53,0.000,0.0,0.0,0.0
20/02/2022,00:38:53,0.000,0.0,0.0,0.0
20/02/2022,00:40:01,0.000,0.0,0.0,0.0
20/02/2022,00:40:54,0.001,0.0,0.0,0.0
20/02/2022,00:41:53,0.000,0.0,0.0,0.0
20/02/2022,00:42:53,0.000,0.0,0.0,0.0
20/02/2022,00:43:53,0.000,0.0,0.0,0.0
20/02/2022,00:44:52,-0.000,0.0,0.0,0.0
20/02/2022,00:45:52,0.000,0.0,0.0,0.0
20/02/2022,00:46:52,0.000,0.0,0.0,0.0
20/02/2022,00:47:52,0.001,0.0,0.0,0.0
20/02/2022,00:48:53,0.000,0.0,0.0,0.0
20/02/2022,00:49:53,0.001,0.0,0.0,0.0
20/02/2022,00:50:52,0.000,0.0,0.0,0.0
20/02/2022,00:51:53,0.000,0.0,0.0,0.0
20/02/2022,00:52:52,-0.000,0.0,0.0,0.0
20/02/2022,00:53:53,0.000,0.0,0.0,0.0
20/02/2022,00:54:53,0.000,0.0,0.0,0.0
20/02/2022,00:55:53,0.000,0.0,0.0,0.0
20/02/2022,00:56:53,0.000,0.0,0.0,0.0
20/02/2022,00:57:53,-0.001,0.0,0.0,0.0
20/02/2022,00:58:53,0.000,0.0,0.0,0.0
20/02/2022,00:59:53,0.001,0.0,0.0,0.0
20/02/2022,01:01:02,-0.001,0.0,0.0,0.0
20/02/2022,01:01:51,0.000,0.0,0.0,0.0
20/02/2022,01:02:53,0.000,0.0,0.0,0.0
20/02/2022,01:03:53,0.000,0.0,0.0,0.0
20/02/2022,01:04:53,0.000,0.0,0.0,0.0
20/02/2022,01:05:52,0.001,0.0,0.0,0.0
20/02/2022,01:06:53,0.000,0.0,0.0,0.0
20/02/2022,01:07:53,0.001,0.0,0.0,0.0
20/02/2022,01:08:52,-0.001,0.0,0.0,0.0
20/02/2022,01:09:52,0.000,0.0,0.0,0.0
20/02/2022,01:10:53,0.000,0.0,0.0,0.0
20/02/2022,01:11:53,0.000,0.0,0.0,0.0
20/02/2022,01:12:53,0.000,0.0,0.0,0.0
20/02/2022,01:13:53,0.001,0.0,0.0,0.0
20/02/2022,01:15:01,0.001,0.0,0.0,0.0
20/02/2022,01:15:53,0.001,0.0,0.0,0.0
20/02/2022,01:16:53,0.000,0.0,0.0,0.0
20/02/2022,01:17:53,0.001,0.0,0.0,0.0
20/02/2022,01:18:53,0.000,0.0,0.0,0.0
20/02/2022,01:19:53,0.000,0.0,0.0,0.0
20/02/2022,01:20:53,0.000,0.0,0.0,0.0
20/02/2022,01:21:54,-0.001,0.0,0.0,0.0
20/02/2022,01:22:53,0.001,0.0,0.0,0.0
20/02/2022,01:23:53,0.000,0.0,0.0,0.0
20/02/2022,01:25:02,-0.001,0.0,0.0,0.0
20/02/2022,01:25:53,0.000,0.0,0.0,0.0
20/02/2022,01:26:53,-0.001,0.0,0.0,0.0
20/02/2022,01:27:53,0.000,0.0,0.0,0.0
20/02/2022,01:28:53,-0.001,0.0,0.0,0.0
20/02/2022,01:29:53,0.000,0.0,0.0,0.0
20/02/2022,01:30:53,-0.000,0.0,0.0,0.0
20/02/2022,01:31:53,-0.000,0.0,0.0,0.0
20/02/2022,01:32:53,0.000,0.0,0.0,0.0
20/02/2022,01:33:53,-0.000,0.0,0.0,0.0
20/02/2022,01:34:53,-0.001,0.0,0.0,0.0
20/02/2022,01:35:53,-0.000,0.0,0.0,0.0
20/02/2022,01:36:53,-0.001,0.0,0.0,0.0
20/02/2022,01:37:53,-0.001,0.0,0.0,0.0
20/02/2022,01:39:01,-0.000,0.0,0.0,0.0
20/02/2022,01:39:53,-0.000,0.0,0.0,0.0
20/02/2022,01:40:53,-0.001,0.0,0.0,0.0
20/02/2022,01:41:53,0.001,0.0,0.0,0.0
20/02/2022,01:42:53,-0.000,0.0,0.0,0.0
20/02/2022,01:43:53,-0.000,0.0,0.0,0.0
20/02/2022,01:44:53,-0.000,0.0,0.0,0.0
20/02/2022,01:45:53,-0.000,0.0,0.0,0.0
20/02/2022,01:46:53,-0.000,0.0,0.0,0.0
20/02/2022,01:47:53,-0.000,0.0,0.0,0.0
20/02/2022,01:49:01,-0.001,0.0,0.0,0.0
20/02/2022,01:49:53,-0.000,0.0,0.0,0.0
20/02/2022,01:50:52,-0.000,0.0,0.0,0.0
20/02/2022,01:51:53,-0.000,0.0,0.0,0.0
20/02/2022,01:52:53,-0.000,0.0,0.0,0.0
20/02/2022,01:53:53,-0.001,0.0,0.0,0.0
20/02/2022,01:54:53,0.001,0.0,0.0,0.0
20/02/2022,01:55:53,0.001,0.0,0.0,0.0
20/02/2022,01:57:02,0.000,0.0,0.0,0.0
20/02/2022,01:57:53,-0.001,0.0,0.0,0.0
20/02/2022,01:58:53,-0.000,0.0,0.0,0.0
20/02/2022,01:59:53,0.000,0.0,0.0,0.0
20/02/2022,02:00:53,-0.000,0.0,0.0,0.0
20/02/2022,02:02:45,-0.000,0.0,0.0,0.0
20/02/2022,02:04:01,0.001,0.0,0.0,0.0
20/02/2022,02:04:53,-0.000,0.0,0.0,0.0
20/02/2022,02:05:53,-0.001,0.0,0.0,0.0
20/02/2022,02:07:02,0.000,0.0,0.0,0.0
20/02/2022,02:07:52,-0.000,0.0,0.0,0.0
20/02/2022,02:08:53,-0.000,0.0,0.0,0.0
20/02/2022,02:09:53,-0.000,0.0,0.0,0.0
20/02/2022,02:10:53,0.000,0.0,0.0,0.0
20/02/2022,02:11:53,-0.000,0.0,0.0,0.0
20/02/2022,02:12:53,-0.001,0.0,0.0,0.0
20/02/2022,02:13:53,0.000,0.0,0.0,0.0
20/02/2022,02:14:53,-0.000,0.0,0.0,0.0
20/02/2022,02:15:53,-0.000,0.0,0.0,0.0
20/02/2022,02:16:53,-0.000,0.0,0.0,0.0
20/02/2022,02:17:53,-0.000,0.0,0.0,0.0
20/02/2022,02:19:01,-0.000,0.0,0.0,0.0
20/02/2022,02:19:53,-0.000,0.0,0.0,0.0
20/02/2022,02:21:01,-0.000,0.0,0.0,0.0
20/02/2022,02:21:53,-0.000,0.0,0.0,0.0
20/02/2022,02:22:45,-0.000,0.0,0.0,0.0
20/02/2022,02:23:53,0.001,0.0,0.0,0.0
20/02/2022,02:24:53,0.001,0.0,0.0,0.0
20/02/2022,02:25:53,0.000,0.0,0.0,0.0
20/02/2022,02:26:53,-0.000,0.0,0.0,0.0
20/02/2022,02:27:52,-0.000,0.0,0.0,0.0
20/02/2022,02:28:53,-0.000,0.0,0.0,0.0
20/02/2022,02:29:53,-0.001,0.0,0.0,0.0
20/02/2022,02:30:52,-0.001,0.0,0.0,0.0
20/02/2022,02:31:54,-0.000,0.0,0.0,0.0
20/02/2022,02:32:53,-0.000,0.0,0.0,0.0
20/02/2022,02:33:53,-0.000,0.0,0.0,0.0
20/02/2022,02:34:53,-0.001,0.0,0.0,0.0
20/02/2022,02:35:52,-0.001,0.0,0.0,0.0
20/02/2022,02:36:52,0.000,0.0,0.0,0.0
20/02/2022,02:37:53,-0.000,0.0,0.0,0.0
20/02/2022,02:38:53,-0.000,0.0,0.0,0.0
20/02/2022,02:39:53,0.000,0.0,0.0,0.0
20/02/2022,02:40:53,-0.000,0.0,0.0,0.0
20/02/2022,02:42:01,-0.000,0.0,0.0,0.0
20/02/2022,02:42:53,0.000,0.0,0.0,0.0
20/02/2022,02:43:53,-0.000,0.0,0.0,0.0
20/02/2022,02:45:01,-0.000,0.0,0.0,0.0
20/02/2022,02:45:53,-0.001,0.0,0.0,0.0
20/02/2022,02:46:53,-0.000,0.0,0.0,0.0
20/02/2022,02:47:53,0.001,0.0,0.0,0.0
20/02/2022,02:48:55,-0.001,0.0,0.0,0.0
20/02/2022,02:49:53,-0.000,0.0,0.0,0.0
20/02/2022,02:50:53,0.001,0.0,0.0,0.0
20/02/2022,02:51:53,0.001,0.0,0.0,0.0
20/02/2022,02:52:53,0.000,0.0,0.0,0.0
20/02/2022,02:53:53,-0.001,0.0,0.0,0.0
20/02/2022,02:54:53,-0.000,0.0,0.0,0.0
20/02/2022,02:56:02,-0.000,0.0,0.0,0.0
20/02/2022,02:56:52,-0.001,0.0,0.0,0.0
20/02/2022,02:57:53,0.001,0.0,0.0,0.0
20/02/2022,02:58:53,-0.000,0.0,0.0,0.0
20/02/2022,02:59:53,-0.000,0.0,0.0,0.0
20/02/2022,03:00:53,-0.000,0.0,0.0,0.0
20/02/2022,03:01:53,-0.000,0.0,0.0,0.0
20/02/2022,03:02:53,-0.001,0.0,0.0,0.0
20/02/2022,03:04:10,0.000,0.0,0.0,0.0
20/02/2022,03:05:53,-0.001,0.0,0.0,0.0
20/02/2022,03:06:53,-0.001,0.0,0.0,0.0
20/02/2022,03:07:53,-0.001,0.0,0.0,0.0
20/02/2022,03:08:53,-0.001,0.0,0.0,0.0
20/02/2022,03:09:53,0.001,0.0,0.0,0.0
20/02/2022,03:10:53,-0.000,0.0,0.0,0.0
20/02/2022,03:11:53,-0.000,0.0,0.0,0.0
20/02/2022,03:12:53,0.000,0.0,0.0,0.0
20/02/2022,03:13:53,-0.000,0.0,0.0,0.0
20/02/2022,03:14:53,0.000,0.0,0.0,0.0
20/02/2022,03:15:54,-0.001,0.0,0.0,0.0
20/02/2022,03:17:02,-0.000,0.0,0.0,0.0
20/02/2022,03:17:51,0.001,0.0,0.0,0.0
20/02/2022,03:18:53,0.001,0.0,0.0,0.0
20/02/2022,03:20:01,-0.001,0.0,0.0,0.0
20/02/2022,03:20:53,-0.000,0.0,0.0,0.0
20/02/2022,03:21:53,-0.000,0.0,0.0,0.0
20/02/2022,03:22:53,-0.000,0.0,0.0,0.0
20/02/2022,03:23:51,0.000,0.0,0.0,0.0
20/02/2022,03:24:53,-0.001,0.0,0.0,0.0
20/02/2022,03:25:53,-0.000,0.0,0.0,0.0
20/02/2022,03:26:53,-0.000,0.0,0.0,0.0
20/02/2022,03:27:53,-0.000,0.0,0.0,0.0
20/02/2022,03:28:53,-0.000,0.0,0.0,0.0
20/02/2022,03:29:53,-0.001,0.0,0.0,0.0
20/02/2022,03:30:54,-0.000,0.0,0.0,0.0
20/02/2022,03:31:54,0.000,0.0,0.0,0.0
20/02/2022,03:32:53,-0.001,0.0,0.0,0.0
20/02/2022,03:33:53,-0.000,0.0,0.0,0.0
20/02/2022,03:34:53,-0.001,0.0,0.0,0.0
20/02/2022,03:35:53,-0.000,0.0,0.0,0.0
20/02/2022,03:36:53,0.000,0.0,0.0,0.0
20/02/2022,03:38:02,-0.001,0.0,0.0,0.0
20/02/2022,03:38:52,-0.000,0.0,0.0,0.0
20/02/2022,03:39:53,-0.001,0.0,0.0,0.0
20/02/2022,03:40:53,-0.000,0.0,0.0,0.0
20/02/2022,03:41:53,-0.001,0.0,0.0,0.0
20/02/2022,03:42:53,-0.001,0.0,0.0,0.0
20/02/2022,03:43:53,0.000,0.0,0.0,0.0
20/02/2022,03:44:53,-0.001,0.0,0.0,0.0
20/02/2022,03:45:53,-0.001,0.0,0.0,0.0
20/02/2022,03:46:53,0.000,0.0,0.0,0.0
20/02/2022,03:48:02,-0.001,0.0,0.0,0.0
20/02/2022,03:48:52,0.000,0.0,0.0,0.0
20/02/2022,03:49:53,-0.000,0.0,0.0,0.0
20/02/2022,03:50:53,-0.001,0.0,0.0,0.0
20/02/2022,03:51:53,-0.001,0.0,0.0,0.0
20/02/2022,03:52:53,0.000,0.0,0.0,0.0
20/02/2022,03:53:53,-0.001,0.0,0.0,0.0
20/02/2022,03:54:52,0.000,0.0,0.0,0.0
20/02/2022,03:55:54,-0.001,0.0,0.0,0.0
20/02/2022,03:56:53,-0.001,0.0,0.0,0.0
20/02/2022,03:57:53,-0.001,0.0,0.0,0.0
20/02/2022,03:58:53,0.000,0.0,0.0,0.0
20/02/2022,03:59:53,-0.001,0.0,0.0,0.0
20/02/2022,04:00:53,-0.001,0.0,0.0,0.0
20/02/2022,04:02:01,-0.001,0.0,0.0,0.0
20/02/2022,04:02:54,-0.001,0.0,0.0,0.0
20/02/2022,04:03:53,-0.001,0.0,0.0,0.0
20/02/2022,04:04:53,-0.001,0.0,0.0,0.0
20/02/2022,04:05:53,-0.001,0.0,0.0,0.0
20/02/2022,04:06:53,-0.000,0.0,0.0,0.0
20/02/2022,04:07:53,0.001,0.0,0.0,0.0
20/02/2022,04:08:53,0.000,0.0,0.0,0.0
20/02/2022,04:10:02,-0.001,0.0,0.0,0.0
20/02/2022,04:10:52,-0.001,0.0,0.0,0.0
20/02/2022,04:11:53,0.000,0.0,0.0,0.0
20/02/2022,04:12:53,-0.002,0.0,0.0,0.0
20/02/2022,04:14:05,-0.001,0.0,0.0,0.0
20/02/2022,04:15:54,-0.001,0.0,0.0,0.0
20/02/2022,04:16:55,-0.001,0.0,0.0,0.0
20/02/2022,04:17:53,-0.001,0.0,0.0,0.0
20/02/2022,04:18:54,-0.001,0.0,0.0,0.0
20/02/2022,04:20:01,0.000,0.0,0.0,0.0
20/02/2022,04:20:53,0.000,0.0,0.0,0.0
20/02/2022,04:21:53,-0.001,0.0,0.0,0.0
20/02/2022,04:23:01,-0.001,0.0,0.0,0.0
20/02/2022,04:23:53,-0.001,0.0,0.0,0.0
20/02/2022,04:24:53,-0.001,0.0,0.0,0.0
20/02/2022,04:25:53,-0.001,0.0,0.0,0.0
20/02/2022,04:26:53,-0.001,0.0,0.0,0.0
20/02/2022,04:27:53,0.000,0.0,0.0,0.0
20/02/2022,04:28:54,-0.001,0.0,0.0,0.0
20/02/2022,04:29:53,-0.001,0.0,0.0,0.0
20/02/2022,04:30:54,-0.000,0.0,0.0,0.0
20/02/2022,04:31:53,-0.001,0.0,0.0,0.0
20/02/2022,04:32:53,0.000,0.0,0.0,0.0
20/02/2022,04:34:01,-0.001,0.0,0.0,0.0
20/02/2022,04:34:53,-0.001,0.0,0.0,0.0
20/02/2022,04:35:53,-0.001,0.0,0.0,0.0
20/02/2022,04:36:53,-0.001,0.0,0.0,0.0
20/02/2022,04:37:53,0.000,0.0,0.0,0.0
20/02/2022,04:38:53,-0.002,0.0,0.0,0.0
20/02/2022,04:39:54,-0.001,0.0,0.0,0.0
20/02/2022,04:40:53,-0.001,0.0,0.0,0.0
20/02/2022,04:41:53,-0.001,0.0,0.0,0.0
20/02/2022,04:42:54,-0.000,0.0,0.0,0.0
20/02/2022,04:43:53,-0.001,0.0,0.0,0.0
20/02/2022,04:44:53,-0.001,0.0,0.0,0.0
20/02/2022,04:45:53,-0.001,0.0,0.0,0.0
20/02/2022,04:46:53,-0.001,0.0,0.0,0.0
20/02/2022,04:47:53,-0.001,0.0,0.0,0.0
20/02/2022,04:48:53,-0.001,0.0,0.0,0.0
20/02/2022,04:49:53,-0.001,0.0,0.0,0.0
20/02/2022,04:50:54,-0.001,0.0,0.0,0.0
20/02/2022,04:51:53,-0.001,0.0,0.0,0.0
20/02/2022,04:52:53,-0.002,0.0,0.0,0.0
20/02/2022,04:53:53,-0.001,0.0,0.0,0.0
20/02/2022,04:54:54,-0.002,0.0,0.0,0.0
20/02/2022,04:56:09,-0.001,0.0,0.0,0.0
20/02/2022,04:57:54,-0.001,0.0,0.0,0.0
20/02/2022,04:58:53,-0.000,0.0,0.0,0.0
20/02/2022,04:59:53,-0.001,0.0,0.0,0.0
20/02/2022,05:00:54,0.000,0.0,0.0,0.0
20/02/2022,05:02:02,-0.001,0.0,0.0,0.0
20/02/2022,05:02:54,-0.001,0.0,0.0,0.0
20/02/2022,05:03:54,-0.002,0.0,0.0,0.0
20/02/2022,05:04:53,-0.001,0.0,0.0,0.0
20/02/2022,05:05:53,-0.000,0.0,0.0,0.0
20/02/2022,05:06:53,-0.001,0.0,0.0,0.0
20/02/2022,05:08:02,-0.001,0.0,0.0,0.0
20/02/2022,05:09:00,-0.001,0.0,0.0,0.0
20/02/2022,05:09:53,-0.001,0.0,0.0,0.0
20/02/2022,05:10:54,-0.001,0.0,0.0,0.0
20/02/2022,05:11:54,-0.001,0.0,0.0,0.0
20/02/2022,05:12:53,-0.000,0.0,0.0,0.0
20/02/2022,05:13:53,0.000,0.0,0.0,0.0
20/02/2022,05:14:53,-0.001,0.0,0.0,0.0
20/02/2022,05:16:02,0.000,0.0,0.0,0.0
20/02/2022,05:16:52,-0.001,0.0,0.0,0.0
20/02/2022,05:17:53,-0.001,0.0,0.0,0.0
20/02/2022,05:19:01,-0.002,0.0,0.0,0.0
20/02/2022,05:19:53,-0.001,0.0,0.0,0.0
20/02/2022,05:20:53,0.000,0.0,0.0,0.0
20/02/2022,05:21:53,-0.001,0.0,0.0,0.0
20/02/2022,05:22:54,-0.001,0.0,0.0,0.0
20/02/2022,05:23:53,-0.000,0.0,0.0,0.0
20/02/2022,05:24:53,-0.002,0.0,0.0,0.0
20/02/2022,05:25:53,-0.002,0.0,0.0,0.0
20/02/2022,05:26:53,-0.001,0.0,0.0,0.0
20/02/2022,05:27:53,-0.001,0.0,0.0,0.0
20/02/2022,05:28:53,-0.000,0.0,0.0,0.0
20/02/2022,05:29:54,-0.001,0.0,0.0,0.0
20/02/2022,05:30:53,-0.001,0.0,0.0,0.0
20/02/2022,05:31:53,-0.001,0.0,0.0,0.0
20/02/2022,05:32:53,-0.001,0.0,0.0,0.0
20/02/2022,05:33:53,-0.001,0.0,0.0,0.0
20/02/2022,05:34:54,-0.000,0.0,0.0,0.0
20/02/2022,05:35:53,-0.001,0.0,0.0,0.0
20/02/2022,05:37:02,-0.002,0.0,0.0,0.0
20/02/2022,05:37:54,-0.001,0.0,0.0,0.0
20/02/2022,05:38:54,-0.001,0.0,0.0,0.0
20/02/2022,05:40:01,-0.002,0.0,0.0,0.0
20/02/2022,05:40:53,-0.001,0.0,0.0,0.0
20/02/2022,05:41:53,-0.002,0.0,0.0,0.0
20/02/2022,05:42:53,-0.001,0.0,0.0,0.0
20/02/2022,05:43:54,-0.001,0.0,0.0,0.0
20/02/2022,05:45:46,-0.001,0.0,0.0,0.0
20/02/2022,05:47:01,-0.000,0.0,0.0,0.0
20/02/2022,05:47:53,-0.000,0.0,0.0,0.0
20/02/2022,05:48:53,-0.000,0.0,0.0,0.0
20/02/2022,05:49:53,-0.001,0.0,0.0,0.0
20/02/2022,05:50:54,-0.001,0.0,0.0,0.0
20/02/2022,05:51:53,0.000,0.0,0.0,0.0
20/02/2022,05:52:53,-0.001,0.0,0.0,0.0
20/02/2022,05:53:53,-0.001,0.0,0.0,0.0
20/02/2022,05:54:53,0.000,0.0,0.0,0.0
20/02/2022,05:55:53,-0.001,0.0,0.0,0.0
20/02/2022,05:56:53,-0.001,0.0,0.0,0.0
20/02/2022,05:58:01,-0.002,0.0,0.0,0.0
20/02/2022,05:58:53,-0.001,0.0,0.0,0.0
20/02/2022,05:59:53,0.000,0.0,0.0,0.0
20/02/2022,06:01:01,-0.001,0.0,0.0,0.0
20/02/2022,06:02:01,-0.002,0.0,0.0,0.0
20/02/2022,06:02:54,-0.001,0.0,0.0,0.0
20/02/2022,06:04:10,-0.000,0.0,0.0,0.0
20/02/2022,06:06:02,-0.001,0.0,0.0,0.0
20/02/2022,06:06:52,-0.001,0.0,0.0,0.0
20/02/2022,06:07:54,-0.000,0.0,0.0,0.0
20/02/2022,06:09:02,-0.001,0.0,0.0,0.0
20/02/2022,06:09:52,-0.001,0.0,0.0,0.0
20/02/2022,06:10:53,-0.001,0.0,0.0,0.0
20/02/2022,06:11:54,-0.001,0.0,0.0,0.0
20/02/2022,06:12:54,-0.001,0.0,0.0,0.0
20/02/2022,06:13:53,-0.001,0.0,0.0,0.0
20/02/2022,06:14:54,-0.001,0.0,0.0,0.0
20/02/2022,06:15:53,-0.002,0.0,0.0,0.0
20/02/2022,06:16:55,0.000,0.0,0.0,0.0
20/02/2022,06:17:53,0.000,0.0,0.0,0.0
20/02/2022,06:18:53,-0.001,0.0,0.0,0.0
20/02/2022,06:20:01,-0.001,0.0,0.0,0.0
20/02/2022,06:20:53,-0.001,0.0,0.0,0.0
20/02/2022,06:21:54,-0.002,0.0,0.0,0.0
20/02/2022,06:23:01,-0.001,0.0,0.0,0.0
20/02/2022,06:23:53,-0.001,0.0,0.0,0.0
20/02/2022,06:24:54,-0.001,0.0,0.0,0.0
20/02/2022,06:26:03,0.001,0.0,0.0,0.0
20/02/2022,06:26:53,-0.001,0.0,0.0,0.0
20/02/2022,06:27:53,-0.001,0.0,0.0,0.0
20/02/2022,06:28:53,-0.001,0.0,0.0,0.0
20/02/2022,06:29:53,-0.000,0.0,0.0,0.0
20/02/2022,06:30:54,-0.001,0.0,0.0,0.0
20/02/2022,06:31:53,-0.002,0.0,0.0,0.0
20/02/2022,06:33:01,-0.001,0.0,0.0,0.0
20/02/2022,06:33:53,-0.001,0.0,0.0,0.0
20/02/2022,06:34:54,-0.001,0.0,0.0,0.0
20/02/2022,06:35:54,-0.001,0.0,0.0,0.0
20/02/2022,06:36:54,-0.001,0.0,0.0,0.0
20/02/2022,06:37:53,-0.001,0.0,0.0,0.0
20/02/2022,06:38:53,-0.001,0.0,0.0,0.0
20/02/2022,06:39:53,-0.001,0.0,0.0,0.0
20/02/2022,06:40:53,-0.002,0.0,0.0,0.0
20/02/2022,06:41:53,-0.001,0.0,0.0,0.0
20/02/2022,06:42:53,0.000,0.0,0.0,0.0
20/02/2022,06:44:01,-0.001,0.0,0.0,0.0
20/02/2022,06:44:53,-0.002,0.0,0.0,0.0
20/02/2022,06:45:54,-0.002,0.0,0.0,0.0
20/02/2022,06:46:54,-0.002,0.0,0.0,0.0
20/02/2022,06:47:54,-0.001,0.0,0.0,0.0
20/02/2022,06:48:54,-0.001,0.0,0.0,0.0
20/02/2022,06:49:54,-0.002,0.0,0.0,0.0
20/02/2022,06:50:53,-0.001,0.0,0.0,0.0
20/02/2022,06:51:53,-0.001,0.0,0.0,0.0
20/02/2022,06:52:53,0.000,0.0,0.0,0.0
20/02/2022,06:53:54,-0.001,0.0,0.0,0.0
20/02/2022,06:54:53,-0.001,0.0,0.0,0.0
20/02/2022,06:55:53,0.000,0.0,0.0,0.0
20/02/2022,06:56:54,-0.001,0.0,0.0,0.0
20/02/2022,06:57:54,0.000,0.0,0.0,0.0
20/02/2022,06:58:53,-0.001,0.0,0.0,0.0
20/02/2022,06:59:54,0.000,0.0,0.0,0.0
20/02/2022,07:00:54,-0.001,0.0,0.0,0.0
20/02/2022,07:01:54,-0.000,0.0,0.0,0.0
20/02/2022,07:02:53,-0.001,0.0,0.0,0.0
20/02/2022,07:03:53,-0.001,0.0,0.0,0.0
20/02/2022,07:04:53,-0.001,0.0,0.0,0.0
20/02/2022,07:05:54,-0.001,0.0,0.0,0.0
20/02/2022,07:06:53,-0.001,0.0,0.0,0.0
20/02/2022,07:08:01,-0.001,0.0,0.0,0.0
20/02/2022,07:08:53,0.001,0.0,0.0,0.0
20/02/2022,07:09:53,-0.001,0.0,0.0,0.0
20/02/2022,07:10:54,-0.000,0.0,0.0,0.0
20/02/2022,07:11:53,-0.000,0.0,0.0,0.0
20/02/2022,07:12:53,0.000,0.0,0.0,0.0
20/02/2022,07:13:53,-0.000,0.0,0.0,0.0
20/02/2022,07:14:53,-0.001,0.0,0.0,0.0
20/02/2022,07:15:53,0.001,0.0,0.0,0.0
20/02/2022,07:16:53,-0.001,0.0,0.0,0.0
20/02/2022,07:17:53,-0.000,0.0,0.0,0.0
20/02/2022,07:18:53,-0.000,0.0,0.0,0.0
20/02/2022,07:19:53,-0.001,0.0,0.0,0.0
20/02/2022,07:20:45,0.000,0.0,0.0,0.0
20/02/2022,07:21:54,0.000,0.0,0.0,0.0
20/02/2022,07:22:53,0.000,0.0,0.0,0.0
20/02/2022,07:23:54,0.000,0.0,0.0,0.0
20/02/2022,07:24:53,-0.001,0.0,0.0,0.0
20/02/2022,07:25:53,0.000,0.0,0.0,0.0
20/02/2022,07:26:53,0.000,0.0,0.0,0.0
20/02/2022,07:27:54,-0.001,0.0,0.0,0.0
20/02/2022,07:28:54,0.000,0.0,0.0,0.0
20/02/2022,07:29:54,0.000,0.0,0.0,0.0
20/02/2022,07:30:54,0.000,0.0,0.0,0.0
20/02/2022,07:31:53,0.001,0.0,0.0,0.0
20/02/2022,07:33:02,0.000,0.0,0.0,0.0
20/02/2022,07:33:53,0.000,0.0,0.0,0.0
20/02/2022,07:34:54,0.001,0.0,0.0,0.0
20/02/2022,07:35:54,0.000,0.0,0.0,0.0
20/02/2022,07:36:54,0.001,0.0,0.0,0.0
20/02/2022,07:37:54,0.001,0.0,0.0,0.0
20/02/2022,07:38:54,0.000,0.0,0.0,0.0
20/02/2022,07:39:54,0.000,0.0,0.0,0.0
20/02/2022,07:40:54,0.001,0.0,0.0,0.0
20/02/2022,07:41:54,0.001,0.0,0.0,0.0
20/02/2022,07:43:01,0.001,0.0,0.0,0.0
20/02/2022,07:43:53,0.001,0.0,0.0,0.0
20/02/2022,07:44:54,0.001,0.0,0.0,0.0
20/02/2022,07:45:53,0.002,0.0,0.0,0.0
20/02/2022,07:46:53,0.001,0.0,0.0,0.0
20/02/2022,07:47:53,0.001,0.0,0.0,0.0
20/02/2022,07:48:55,0.002,0.0,0.0,0.0
20/02/2022,07:49:53,0.001,0.0,0.0,0.0
20/02/2022,07:50:53,0.001,0.0,0.0,0.0
20/02/2022,07:51:53,0.001,0.0,0.0,0.0
20/02/2022,07:52:53,0.001,0.0,0.0,0.0
20/02/2022,07:53:53,0.002,0.0,0.0,0.0
20/02/2022,07:54:55,0.002,0.0,0.0,0.0
20/02/2022,07:55:54,0.002,0.0,0.0,0.0
20/02/2022,07:56:53,0.002,0.0,0.0,0.0
20/02/2022,07:57:53,0.002,0.0,0.0,0.0
20/02/2022,07:58:53,0.003,0.0,0.0,0.0
20/02/2022,07:59:53,0.002,0.0,0.0,0.0
20/02/2022,08:01:02,0.003,0.0,0.0,0.0
20/02/2022,08:01:54,0.003,0.0,0.0,0.0
20/02/2022,08:02:55,0.004,0.0,0.0,0.0
20/02/2022,08:03:54,0.003,0.0,0.0,0.0
20/02/2022,08:04:53,0.002,0.0,0.0,0.0
20/02/2022,08:05:53,0.004,0.0,0.0,0.0
20/02/2022,08:07:01,0.004,0.0,0.0,0.0
20/02/2022,08:07:53,0.004,0.0,0.0,0.0
20/02/2022,08:08:54,0.004,0.0,0.0,0.0
20/02/2022,08:09:54,0.005,0.0,0.0,0.0
20/02/2022,08:10:54,0.005,0.0,0.0,0.0
20/02/2022,08:11:53,0.004,0.0,0.0,0.0
20/02/2022,08:12:54,0.005,0.0,0.0,0.0
20/02/2022,08:13:54,0.005,0.0,0.0,0.0
20/02/2022,08:14:54,0.005,0.0,0.0,0.0
20/02/2022,08:15:54,0.005,0.0,0.0,0.0
20/02/2022,08:16:53,0.005,0.0,0.0,0.0
20/02/2022,08:18:02,0.007,0.0,0.0,0.0
20/02/2022,08:18:54,0.006,0.0,0.0,0.0
20/02/2022,08:19:54,0.007,0.0,0.0,0.0
20/02/2022,08:20:54,0.008,0.0,0.0,0.0
20/02/2022,08:21:54,0.007,0.0,0.001,0.001
20/02/2022,08:22:53,0.007,0.0,0.001,0.0
20/02/2022,08:23:53,0.009,0.0,0.001,0.0
20/02/2022,08:24:53,0.009,0.0,0.001,0.0
20/02/2022,08:25:54,0.008,0.0,0.001,0.0
20/02/2022,08:26:54,0.010,0.0,0.001,0.0
20/02/2022,08:27:53,0.009,0.0,0.001,0.0
20/02/2022,08:28:53,0.008,0.0,0.001,0.0
20/02/2022,08:29:54,0.009,0.0,0.002,0.001
20/02/2022,08:30:54,0.008,0.0,0.002,0.0
20/02/2022,08:31:53,0.008,0.0,0.002,0.0
20/02/2022,08:32:53,0.008,0.0,0.002,0.0
20/02/2022,08:33:54,0.009,0.0,0.002,0.0
20/02/2022,08:34:54,0.009,0.0,0.002,0.0
20/02/2022,08:35:54,0.009,0.0,0.002,0.0
20/02/2022,08:36:54,0.011,0.0,0.003,0.001
20/02/2022,08:37:54,0.009,0.0,0.003,0.0
20/02/2022,08:38:53,0.010,0.0,0.003,0.0
20/02/2022,08:39:54,0.012,0.0,0.003,0.0
20/02/2022,08:40:54,0.011,0.0,0.003,0.0
20/02/2022,08:41:54,0.012,0.0,0.004,0.001
20/02/2022,08:42:54,0.014,0.0,0.004,0.0
20/02/2022,08:43:53,0.015,0.0,0.004,0.0
20/02/2022,08:44:53,0.013,0.0,0.004,0.0
20/02/2022,08:45:54,0.014,0.0,0.004,0.0
20/02/2022,08:46:54,0.017,0.0,0.005,0.001
20/02/2022,08:47:54,0.015,0.0,0.005,0.0
20/02/2022,08:48:54,0.017,0.0,0.005,0.0
20/02/2022,08:50:02,0.017,0.0,0.006,0.001
20/02/2022,08:50:53,0.019,0.0,0.006,0.0
20/02/2022,08:51:54,0.021,0.0,0.006,0.0
20/02/2022,08:52:54,0.020,0.0,0.007,0.001
20/02/2022,08:53:53,0.020,0.0,0.007,0.0
20/02/2022,08:54:53,0.021,0.0,0.007,0.0
20/02/2022,08:55:54,0.026,0.0,0.008,0.001
20/02/2022,08:56:56,0.023,0.0,0.008,0.0
20/02/2022,08:57:53,0.025,0.0,0.008,0.0
20/02/2022,08:58:53,0.024,0.0,0.009,0.001
20/02/2022,09:00:03,0.025,0.0,0.009,0.0
20/02/2022,09:01:15,0.027,0.0,0.01,0.001
20/02/2022,09:02:55,0.025,0.0,0.011,0.001
20/02/2022,09:03:53,0.028,0.0,0.011,0.0
20/02/2022,09:04:53,0.023,0.0,0.011,0.0
20/02/2022,09:05:54,0.019,0.0,0.012,0.001
20/02/2022,09:06:53,0.023,0.0,0.012,0.0
20/02/2022,09:08:01,0.020,0.0,0.012,0.0
20/02/2022,09:08:54,0.021,0.0,0.013,0.001
20/02/2022,09:09:54,0.024,0.0,0.013,0.0
20/02/2022,09:11:02,0.029,0.0,0.014,0.001
20/02/2022,09:11:54,0.023,0.0,0.014,0.0
20/02/2022,09:12:54,0.020,0.0,0.014,0.0
20/02/2022,09:14:02,0.021,0.0,0.015,0.001
20/02/2022,09:14:54,0.020,0.0,0.015,0.0
20/02/2022,09:15:54,0.022,0.0,0.015,0.0
20/02/2022,09:16:54,0.023,0.0,0.016,0.001
20/02/2022,09:17:53,0.024,0.0,0.016,0.0
20/02/2022,09:18:53,0.025,0.0,0.017,0.001
20/02/2022,09:19:53,0.030,0.0,0.017,0.0
20/02/2022,09:20:53,0.025,0.0,0.018,0.001
20/02/2022,09:22:03,0.023,0.0,0.018,0.0
20/02/2022,09:22:53,0.021,0.0,0.018,0.0
20/02/2022,09:23:53,0.026,0.0,0.019,0.001
20/02/2022,09:24:54,0.025,0.0,0.019,0.0
20/02/2022,09:25:54,0.028,0.0,0.02,0.001
20/02/2022,09:26:54,0.029,0.0,0.02,0.0
20/02/2022,09:27:54,0.030,0.0,0.021,0.001
20/02/2022,09:28:53,0.027,0.0,0.021,0.0
20/02/2022,09:29:53,0.030,0.0,0.021,0.0
20/02/2022,09:30:53,0.026,0.0,0.022,0.001
20/02/2022,09:31:54,0.028,0.0,0.022,0.0
20/02/2022,09:32:53,0.027,0.0,0.023,0.001
20/02/2022,09:33:53,0.027,0.0,0.023,0.0
20/02/2022,09:35:01,0.030,0.0,0.024,0.001
20/02/2022,09:36:02,0.028,0.0,0.024,0.0
20/02/2022,09:36:54,0.030,0.0,0.025,0.001
20/02/2022,09:37:54,0.027,0.0,0.025,0.0
20/02/2022,09:38:54,0.028,0.0,0.026,0.001
20/02/2022,09:39:54,0.026,0.0,0.026,0.0
20/02/2022,09:40:55,0.032,0.0,0.027,0.001
20/02/2022,09:41:53,0.032,0.0,0.027,0.0
20/02/2022,09:43:02,0.035,0.0,0.028,0.001
20/02/2022,09:43:56,0.037,0.0,0.028,0.0
20/02/2022,09:44:54,0.030,0.0,0.029,0.001
20/02/2022,09:45:54,0.034,0.0,0.029,0.0
20/02/2022,09:46:53,0.028,0.0,0.03,0.001
20/02/2022,09:47:53,0.029,0.0,0.03,0.0
20/02/2022,09:48:53,0.031,0.0,0.031,0.001
20/02/2022,09:49:41,0.026,0.0,0.031,0.0
20/02/2022,09:50:54,0.030,0.0,0.032,0.001
20/02/2022,09:51:54,0.035,0.0,0.032,0.0
20/02/2022,09:52:53,0.036,0.0,0.033,0.001
20/02/2022,09:53:54,0.036,0.0,0.034,0.001
20/02/2022,09:54:55,0.033,0.0,0.034,0.0
20/02/2022,09:55:54,0.032,0.0,0.035,0.001
20/02/2022,09:57:02,0.032,0.0,0.035,0.0
20/02/2022,09:57:53,0.034,0.0,0.036,0.001
20/02/2022,09:58:53,0.029,0.0,0.036,0.0
20/02/2022,10:00:02,0.027,0.0,0.037,0.001
20/02/2022,10:00:54,0.029,0.0,0.037,0.0
20/02/2022,10:01:54,0.026,0.0,0.038,0.001
20/02/2022,10:02:54,0.026,0.0,0.038,0.0
20/02/2022,10:03:53,0.032,0.0,0.039,0.001
20/02/2022,10:04:54,0.027,0.0,0.039,0.0
20/02/2022,10:05:53,0.031,0.0,0.04,0.001
20/02/2022,10:06:53,0.026,0.0,0.04,0.0
20/02/2022,10:07:54,0.028,0.0,0.04,0.0
20/02/2022,10:08:53,0.026,0.0,0.041,0.001
20/02/2022,10:09:53,0.027,0.0,0.041,0.0
20/02/2022,10:10:54,0.033,0.0,0.042,0.001
20/02/2022,10:11:54,0.029,0.0,0.042,0.0
20/02/2022,10:12:54,0.029,0.0,0.043,0.001
20/02/2022,10:13:54,0.031,0.0,0.043,0.0
20/02/2022,10:14:54,0.032,0.0,0.044,0.001
20/02/2022,10:15:54,0.038,0.0,0.044,0.0
20/02/2022,10:16:54,0.036,0.0,0.045,0.001
20/02/2022,10:18:02,0.039,0.0,0.046,0.001
20/02/2022,10:18:53,0.048,0.0,0.046,0.0
20/02/2022,10:19:53,0.040,0.0,0.047,0.001
20/02/2022,10:21:02,0.034,0.0,0.048,0.001
20/02/2022,10:21:54,0.032,0.0,0.048,0.0
20/02/2022,10:22:54,0.039,0.0,0.049,0.001